Location: Cisewo
(53.3833°N, 14.9000°E)
Time: 11:12:32
(UTC+00:00)

NOSS 3-1 (C) - Pass Details

Date: 18 April 2021
Orbit: 732 x 1476 km, 63.4° (Epoch: 18 April)

Event Time Altitude Azimuth Distance (km) Brightness Sun altitude
Rises 20:26:30 0° 309° (NW) 3,756 8.2 -17.7°
Reaches altitude 10° 20:28:57 10° 312° (NW) 2,902 7.2 -18.0°
Maximum altitude 20:35:58 71° 37° (NE) 1,284 4.1 -18.6°
Enters shadow 20:41:19 24° 117° (ESE) 2,446 5.1 -19.1°
